Погода в Сегеже

Хотите узнать прогноз погоды в Сегеже? Тогда Вам сюда: Погода в Сегеже

Поиск расширенной информации на нашем сайте:

Полезная информация:

Новости сайта



02.01.2020
Опубликован Долгосрочный прогноз погоды по городам России и ближнего зарубежья на январь 2020 года.
Карты: Прогноз на январь и февраль 2020 года, Сравнение прогнозируемой аномалии приземной температуры воздуха на январь 2020 года по разным моделям.




Погода в Сегеже - сегодня

Время (UTC), дата Ветер
(°,м/с) 
Видим.   Явления Облачность Т
(°С)
Тd
(°С)
f(%) Тe
(°С)
Pmin
(гПа)
dP
(гПа)
Po
(мм)
O2
(г/м3)
Тmin Tmax R s Состояние
почвы
12 29.11.20 190 (Ю) 18000 м    н/о 
-4.5 -5.5 93 -8  1035.6  -0.6  766  314           
15 29.11.20 170 (Ю) 15000 м    н/о 
-3.8 -4.9 92 -6  1034.8  -0.8  765  313      0.3     
18 29.11.20 140 (ЮВ) 2000 м  дымка  10/10 120 м 
[St]
-3.3 -4 95 -5  1033.9  -0.8  765  312    -3.2       
21 29.11.20 150 (ЮВ) н/о    н/о 
-3.5 -4.3 94 -6  1033  -0.9  764  312           
00 30.11.20 150 (ЮВ) 6000 м    н/о 
-3.2 -3.9 95 -5  1031.7  -1.3  763  312           
03 30.11.20 150 (ЮВ) 0700 м    н/о 
-3.3 -3.8 96 -5  1030  -1.7  762  311  -3.8         
06 30.11.20 160 (Ю) 2000 м  дымка  10/10 120 м 
[St]
-2.7 -3.1 97 -4  1028.5  -1.4  761  310  -3.5      10  равномерный
сухой снег
100% 
09 30.11.20 150 (ЮВ) 6000 м    н/о 
-2 -2.4 97 -4  1027.2  -1.3  760  309           
12 30.11.20 160 (Ю) 6000 м    н/о 
-1 -1.4 97 -4  1024.9  -2.2  758  307           
15 30.11.20 150 (ЮВ) 1800 м    н/о 
-0.4 -0.8 97 -2  1023.3  -1.5  757  305           
18 30.11.20 140 (ЮВ) 10 км  дымка  10/10 120 м 
[St]
+0 -0.3 98 -2  1021.5  -1.8  755  304    +0.1  0.8     
21 30.11.20 130 (ЮВ) 0700 м    н/о 
+0.2 -0.2 97 -1  1019.5  -1.9  754  304           
00 01.12.20 160 (Ю) н/о    н/о 
+0 -0.3 98 -2  1017.7  -1.8  753  303           
03 01.12.20 220 (ЮЗ) 13000 м    н/о 
-0.1 -0.4 98 -3  1017.7  753  303  -0.3       
06 01.12.20 180 (Ю) 20000 м    9/9 480 м кучево-дожд. 
[Cb cap]
-1.1 -1.8 95 -3  1018.7  0.9  753  305  -1.8    12  равномерный
сухой снег
100% 
09 01.12.20 190 (Ю) 20000 м    н/о 
-0.9 -1.8 94 -3  1019.2  0.5  754  305           
12 01.12.20 170 (Ю) 20000 м    н/о 
-1.3 -2.1 94 -4  1018.8  -0.4  753  305           
15 01.12.20 160 (Ю) 4800 м    н/о 
-1.6 -2.6 93 -4  1018.4  -0.4  753  306      0.1     
21 01.12.20 240 (ЮЗ) 20000 м    н/о 
+0.2 -0.1 98 -2  1019.1  1.9  754  303           
00 02.12.20 240 (ЮЗ) 20000 м    н/о 
+0.2 -0.4 96 -2  1022.5  3.3  756  305           
03 02.12.20 240 (ЮЗ) 20000 м    н/о 
+0 -0.4 97 -2  1024.3  1.8  758  305  -1.6       
06 02.12.20 230 (ЮЗ) 20000 м  в посл. час ливневой снег  9/9 800 м кучево-дожд. 
[Cb cap]
-1.4 -2.1 95 -2  1025.9  1.5  759  308  -1.6    15  равномерный
сухой снег
100% 
09 02.12.20 230 (ЮЗ) 11000 м    н/о 
-1 -1.8 94 -3  1027.3  1.4  760  307           
12 02.12.20 210 (ЮЗ) 13000 м    н/о 
-1.8 -2.6 94 -4  1027.9  0.5  760  309           
15 02.12.20 210 (ЮЗ) 12000 м    н/о 
-2.3 -3.4 92 -5  1028  0.1  760  309      0.2     
Время (UTC), дата Ветер
(°,м/с) 
Видим.   Явления Облачность Т
(°С)
Тd
(°С)
f(%) Тe
(°С)
Pmin
(гПа)
dP
(гПа)
Po
(мм)
O2
(г/м3)
Тmin Tmax R s Состояние
почвы

Для получения пояснительной информации подведите курсор к названию столбца.

ПОГОДА в Сегеже - архив

Всё, что Вы хотите узнать о погоде в Сегеже - удобно и подробно!

Выберите нужную дату (начиная с 1 января 2019* года) и нажмите кнопку "Найти".
Будут отображены архивные сводки погоды по пункту Сегежа, начиная с указанной даты.


Отображать данные в формате CSV (для использования в таблицах Excel)


Внимание! Наш архив погоды предназначен исключительно для личного некоммерческого использования в познавательных целях. Если Вам необходимы официальные справки о состоянии погоды (для производственных, юридических, коммерческих и т.п. целей), обращайтесь в органы Росгидромета.

*Примечание: данная дата относится к архиву по метеостанциям СССР (Россия, СНГ, Балтия).
Архив по метеостанциям Зарубежной Европы и Азии (кроме Китая) хранится 10 дней, по другим регионам земного шара (Китай, Африка, Америка, Австралия, Океания) - 1 день.

Сегежа - район местоположения метеостанции


Название, широта, долгота, высота метеостанции:
Сегежа 63.8°ш. 34.3°д. 112 м над ур. моря [Российская Федерация]

Дополнительная информация

В oтличие oт бoльшинства пoгoдных сайтoв мы публикуем пoдрoбную метеoинфoрмацию в детальнoм прoфессиoнальнoм фoрмате.

Характеристики температуры и влажнoсти вoздуха измеряются на высoте 2 м в тени вдали oт зданий и деревьев.
Скoрoсть ветра измеряется на высoте 10 м (на урoвне рoста челoвека скoрoсть ветра ниже в 1.5-2 раза). Если метеoстанция нахoдится в гoрoде или в лесу, тo скoрoсть ветра занижена на 2-4 м/с пo сравнению с oткрытым местoм. Скoрoсть ветра над акватoриями крупных рек и oзёр, а также на вершинах хoлмoв на 2-5 м/с выше, чем в oбычных услoвиях.
Атмoсфернoе давление в разных тoчках местнoсти мoжет значительнo oтличаться oт давления на метеoстанции, в зависимoсти oт услoвий рельефа (при пoдъёме на 10 м давление пoнижается примернo на 1 мм рт.ст.).